Location: Belfast
(54.5830°N, 5.9330°W)
Time: 09:21:07
(UTC+00:00)

Coronas F rocket - Visible Passes

Search period start: 28 March 2015 00:00
Search period end: 07 April 2015 01:00
Orbit: 372 x 393 km, 82.5° (Epoch: 28 March)

Date Brightness Start Highest point End Pass type
(mag) Time Alt. Az. Time Alt. Az. Time Alt. Az.
01 Apr 5.1 02:31:19 10° N 02:31:20 10° N 02:31:20 10° N visible
03 Apr 5.1 02:10:58 10° N 02:11:08 11° N 02:11:08 11° N visible
05 Apr 5.0 01:50:24 10° N 01:50:45 13° N 01:50:45 13° N visible
06 Apr 5.0 00:54:20 10° NNE 00:54:22 10° NNE 00:54:22 10° NNE visible
06 Apr 4.9 02:26:34 10° NNW 02:26:37 10° NNW 02:26:37 10° NNW visible
